Ulsan Airport
RKPU : now visible

Airfield :











YOU CAN JOIN US ON...

 
LOGIN :

Register | Disclaimer

   EN    FR    IT 

 









Legend :    VFR   Marginal VFR   IFR   Intensive IFR   Very Intensive IFR
Visi :
Ceiling :
>= 8 km
>= 3000ft
5 to 8 km
1000 to 3000 ft
1500m to 5 km
500 to 1000 ft
800 to 1500m
200 to 500 ft
< 800m
< 200 ft
Symbols :   Thunderstorms  Fog  Heavy snow  Heavy precipitations  Wind > 20 kt






- Airport Elevation : 45 ft
- IATA code : USN


RKPU - Ulsan

METAR N/A
TAF TAF RKPU
Valid from the 15 at 19:00 until the 17 at 01:00 UTC


151800Z 1519/1701 36006KT 9999 FEW030 BKN120 TNM01/1521Z TX15/1605Z TN04/1621Z
BECMG 1603/1604 18007KT
BECMG 1609/1610 34006KT
BECMG 1618/1619 FEW010 BKN030 OVC100
BECMG 1700/1701 24006KT



MET'MAP, your aeronautical weather chart ! - Copyright ORBIFLY December 2007 - Disclaimer

ORBIFLY MET'MAP TEAM :

Programming & Development : Alexandra Zaïnal
Concept & original design : Baudouin d'Aumeries
Assistance for programming : Marc-Olivier Méhu
Technical & hardware support : Manuel Goepfert

Contact : metmap@orbifly.com




SOURCES & CREDITS :

   NOAA       Earth
Advisory